EW5993 Weather Reports


time (UTC)temp
C
wind
direction
speed
KPH
gust
KPH
rain 1hr
cm
rain 24hr
cm
rain mn
cm
humidity
%
barometer
mb
20260504090104 2 275 0.0 0.0 0.00 0.00 0.00 87 993.8
20260504081942 3 275 1.6 3.2 0.00 0.00 0.00 87 994.0
20260504081505 2 275 3.2 6.4 0.00 0.00 0.00 86 994.0
20260504080931 3 275 1.6 3.2 0.00 0.00 0.00 86 994.0
20260504080104 3 275 3.2 4.8 0.00 0.00 0.00 86 994.0
20260504060109 4 284 0.0 1.6 0.00 0.00 0.00 81 994.0
20260504050241 5 284 0.0 0.0 0.00 0.00 0.00 81 993.9
20260504050002 4 284 0.0 0.0 0.00 0.00 0.00 81 994.0
20260504045246 5 284 0.0 0.0 0.00 0.00 0.00 81 994.0
20260504044602 4 284 0.0 3.2 0.00 0.00 0.00 81 994.1
20260504044303 5 284 0.0 3.2 0.00 0.00 0.00 80 994.0
20260504043005 5 284 0.0 0.0 0.00 0.00 0.00 80 994.0
20260504042148 5 284 0.0 0.0 0.00 0.00 0.00 80 994.0
20260504041602 5 284 0.0 3.2 0.00 0.00 0.00 79 994.0
20260504040108 5 284 0.0 0.0 0.00 0.00 0.00 77 993.8
20260504040008 5 284 0.0 0.0 0.00 0.00 0.00 77 993.9
20260504034503 5 284 0.0 3.2 0.00 0.00 0.00 77 993.7
20260504034020 6 284 0.0 0.0 0.00 0.00 0.00 76 993.8
20260504033106 6 284 0.0 1.6 0.00 0.00 0.00 75 993.7
20260504033041 6 284 0.0 0.0 0.00 0.00 0.00 75 993.7
20260504031606 6 284 0.0 1.6 0.00 0.00 0.00 73 993.7
20260504030002 6 284 0.0 1.6 0.00 0.00 0.00 72 993.5
20260504025713 6 284 0.0 0.0 0.00 0.00 0.00 72 993.4
20260504024653 7 284 0.0 1.6 0.00 0.00 0.00 71 993.4
20260504024603 7 284 0.0 3.2 0.00 0.00 0.00 71 993.4
20260504023633 7 285 0.0 1.6 0.00 0.00 0.00 68 993.4
20260504023003 7 285 0.0 1.6 0.00 0.00 0.00 67 993.6
20260504022603 7 285 0.0 0.0 0.00 0.00 0.00 67 993.5
20260504021612 8 285 0.0 1.6 0.00 0.00 0.00 67 993.5
20260504021603 7 285 1.6 3.2 0.00 0.00 0.00 67 993.5
20260504020602 8 285 0.0 0.0 0.00 0.00 0.00 64 993.5
20260504020002 8 285 0.0 3.2 0.00 0.00 0.00 63 993.5
20260504015539 9 285 0.0 0.0 0.00 0.00 0.00 62 993.5
20260504014549 10 285 0.0 1.6 0.00 0.00 0.00 59 993.4
20260504014503 9 285 0.0 3.2 0.00 0.00 0.00 59 993.5
20260504013556 10 285 0.0 1.6 0.00 0.00 0.00 58 993.3
20260504013107 10 285 1.6 3.2 0.00 0.00 0.00 56 993.3
20260504012609 11 124 0.0 1.6 0.00 0.00 0.00 55 993.2
20260504011538 11 124 0.0 0.0 0.00 0.00 0.00 52 993.1
20260504011503 11 124 0.0 0.0 0.00 0.00 0.00 52 993.1
20260504010559 12 124 0.0 0.0 0.00 0.00 0.00 49 993.1
20260504004614 12 123 0.0 4.8 0.00 0.00 0.00 44 993.1
20260504004351 13 124 0.0 4.8 0.00 0.00 0.00 43 993.1
20260504003350 13 103 1.6 4.8 0.00 0.00 0.00 43 992.9
20260504003002 13 130 1.6 6.4 0.00 0.00 0.00 43 993.0
20260504002342 13 94 0.0 4.8 0.00 0.00 0.00 42 992.8
20260504001603 13 103 1.6 6.4 0.00 0.00 0.00 41 992.8
20260504001320 14 97 0.0 4.8 0.00 0.00 0.00 41 992.7
20260504000250 14 130 1.6 14.5 0.00 0.00 0.00 40 992.6
20260504000002 14 78 3.2 12.9 0.00 0.00 0.00 39 992.6
20260503235258 15 120 3.2 14.5 0.00 0.00 0.00 38 992.4
20260503234603 15 154 1.6 11.3 0.00 0.00 0.00 38 992.5
20260503234225 15 152 3.2 12.9 0.00 0.00 0.00 38 992.4
20260503233251 15 136 4.8 14.5 0.00 0.00 0.00 38 992.3
20260503233105 15 130 8.0 16.1 0.00 0.00 0.00 38 992.3
20260503232301 15 136 6.4 14.5 0.00 0.00 0.00 38 992.3
20260503231503 15 86 6.4 14.5 0.00 0.00 0.00 38 992.4
20260503231235 16 137 4.8 22.5 0.00 0.00 0.00 37 992.3
20260503230248 16 137 9.7 22.5 0.00 0.00 0.00 37 992.3
20260503230117 15 142 6.4 24.1 0.00 0.00 0.00 37 992.3
20260503225254 16 131 8.0 20.9 0.00 0.00 0.00 37 992.1
20260503224605 16 103 9.7 22.5 0.00 0.00 0.00 37 992.3
20260503224244 16 169 8.0 22.5 0.00 0.00 0.00 36 992.2
20260503223212 16 139 9.7 22.5 0.00 0.00 0.00 37 992.2
20260503223003 16 102 11.3 29.0 0.00 0.00 0.00 36 992.2
20260503222209 16 107 8.0 22.5 0.00 0.00 0.00 38 992.2
20260503221503 16 119 11.3 25.7 0.00 0.00 0.00 36 992.3
20260503221233 16 144 12.9 24.1 0.00 0.00 0.00 36 992.2
20260503214012 16 177 8.0 22.5 0.00 0.00 0.00 36 992.1
20260503213104 16 161 8.0 24.1 0.00 0.00 0.00 36 992.2
20260503213025 16 170 9.7 22.5 0.00 0.00 0.00 36 992.1
20260503212016 16 134 8.0 20.9 0.00 0.00 0.00 36 992.1
20260503211554 16 163 11.3 24.1 0.00 0.00 0.00 36 992.1
20260503204817 16 128 12.9 27.4 0.00 0.00 0.00 38 992.1
20260503204602 16 95 14.5 29.0 0.00 0.00 0.00 37 992.2
20260503203752 16 148 6.4 29.0 0.00 0.00 0.00 41 992.1
20260503203103 15 152 4.8 32.2 0.00 0.00 0.00 36 992.3
20260503202728 16 112 11.3 29.0 0.00 0.00 0.00 36 992.3
20260503201747 15 148 8.0 24.1 0.00 0.00 0.00 38 992.2
20260503201502 15 102 12.9 22.5 0.00 0.00 0.00 38 992.4
20260503200718 16 188 8.0 25.7 0.00 0.00 0.00 37 992.4
20260503200002 15 133 11.3 27.4 0.00 0.00 0.00 36 992.6
20260503195730 16 108 11.3 27.4 0.00 0.00 0.00 37 992.5
20260503194740 15 135 14.5 27.4 0.00 0.00 0.00 38 992.6
20260503194503 15 123 14.5 29.0 0.00 0.00 0.00 36 992.8
20260503193705 15 152 9.7 20.9 0.00 0.00 0.00 37 992.8
20260503193106 14 160 11.3 24.1 0.00 0.00 0.00 37 992.9
20260503191507 15 145 12.9 29.0 0.00 0.00 0.00 38 993.0
20260503190442 16 126 6.4 27.4 0.00 0.00 0.00 39 993.0
20260503184633 14 123 12.9 25.7 0.00 0.00 0.00 37 993.5
20260503184342 15 153 9.7 22.5 0.00 0.00 0.00 38 993.4
20260503183307 14 238 9.7 22.5 0.00 0.00 0.00 41 993.4
20260503183006 14 142 12.9 24.1 0.00 0.00 0.00 38 993.6
20260503182248 13 144 11.3 29.0 0.00 0.00 0.00 42 993.6
20260503181616 13 136 12.9 25.7 0.00 0.00 0.00 40 993.7
20260503181308 13 147 12.9 29.0 0.00 0.00 0.00 39 993.7
20260503180236 13 126 9.7 24.1 0.00 0.00 0.00 46 993.7
20260503180003 13 190 11.3 25.7 0.00 0.00 0.00 42 993.7
20260503175246 13 167 9.7 24.1 0.00 0.00 0.00 43 993.8
20260503174701 12 101 14.5 25.7 0.00 0.00 0.00 41 993.8
20260503174215 12 134 11.3 20.9 0.00 0.00 0.00 41 993.8
20260503173235 13 164 9.7 22.5 0.00 0.00 0.00 41 993.9
20260503173003 13 178 8.0 30.6 0.00 0.00 0.00 40 993.9
20260503171502 12 151 14.5 37.0 0.00 0.00 0.00 41 994.1
20260503171048 13 151 11.3 35.4 0.00 0.00 0.00 43 994.1
20260503150438 11 152 6.4 32.2 0.00 0.00 0.00 42 995.0
20260503140103 8 121 6.4 19.3 0.00 0.00 0.00 54 995.1
20260503131153 7 144 12.9 24.1 0.00 0.00 0.00 60 995.2
20260503130128 7 158 6.4 25.7 0.00 0.00 0.00 61 995.2
20260503120103 6 150 4.8 19.3 0.00 0.00 0.00 66 995.1